Regional Weather Roundup
Issued by NWS

Home | Current Version | Previous Version | Graphics & Text | Print | Product List | Glossary On
Versions: 1 2 3 4 5 6 7 8 9 10 11 12 13 14 15 16 17 18 19 20 21 22 23 24 25 26 27 28 29 30 31 32 33 34 35 36 37 38 39 40 41 42 43 44 45 46 47 48 49 50
000
ASUS43 KMKX 020900
RWRWI

WISCONSIN REGIONAL WEATHER ROUNDUP
NATIONAL WEATHER SERVICE MILWAUKEE/SULLIVAN WI
400 AM CDT THU JUL 02 2015

NOTE: "FAIR" INDICATES FEW OR NO CLOUDS BELOW 12,000 FEET WITH NO
SIGNIFICANT WEATHER AND/OR OBSTRUCTIONS TO VISIBILITY.

WIZ001-002-006>008-014>016-023>028-021000-
NORTHWEST WISCONSIN

CITY           SKY/WX    TMP DP  RH WIND       PRES   REMARKS
SUPERIOR ARPT  CLOUDY    51  50  99 CALM      30.01R
ASHLAND        CLEAR     46  46 100 S3        30.02R
HAYWARD        CLEAR     49  47  93 CALM      30.04R
SIREN          NOT AVBL
CUMBERLAND     NOT AVBL
RICE LAKE      CLEAR     52  51  95 CALM      30.04R FOG
CHETEK         NOT AVBL
LADYSMITH      NOT AVBL
EAU CLAIRE     NOT AVBL
MENOMONIE      NOT AVBL
NEW RICHMOND   CLEAR     54  54 100 CALM      30.02S
OSCEOLA        NOT AVBL
$$

WIZ003>005-009-010-017-018-021000-
NORTH CENTRAL WISCONSIN

CITY           SKY/WX    TMP DP  RH WIND       PRES   REMARKS
MANITOWISH WTR NOT AVBL
ARBOR VITAE    CLEAR     49  47  93 CALM      30.04R
WOODRUFF       CLEAR     49  47  93 CALM      30.04R
RHINELANDER    CLEAR     46  43  89 CALM      30.05R
EAGLE RIVER    NOT AVBL
LAND O LAKES   CLEAR     41  41 100 CALM      30.05S
PHILLIPS       NOT AVBL
TOMAHAWK       NOT AVBL
MEDFORD        NOT AVBL
MERRILL        NOT AVBL
$$

WIZ029-030-035-036-043>047-021000-
CENTRAL WISCONSIN

CITY           SKY/WX    TMP DP  RH WIND       PRES   REMARKS
WAUSAU         CLEAR     51  48  89 SE5       30.04R
MOSINEE        NOT AVBL
MARSHFIELD     CLEAR     52  48  86 E7        30.03R
STEVENS POINT  MOCLDY    53  51  94 SE3       30.05R
WAUPACA        NOT AVBL
WAUTOMA        NOT AVBL
WISC RAPIDS    CLOUDY    54  51  90 SE9       30.05R
CAMP DOUGLAS   NOT AVBL
$$

WIZ011>013-019>022-031-037>040-048>050-021000-
NORTHEAST WISCONSIN

CITY           SKY/WX    TMP DP  RH WIND       PRES   REMARKS
ANTIGO         CLEAR     46  45  97 CALM      30.05R
SHAWANO        NOT AVBL
OCONTO         NOT AVBL
STURGEON BAY   CLEAR     46  43  87 CALM      30.06S
GREEN BAY      CLEAR     48  46  93 CALM      30.04R
MANITOWOC      NOT AVBL
APPLETON       NOT AVBL
CLINTONVILLE   NOT AVBL
OSHKOSH        CLEAR     50  45  83 CALM      30.03S
$$

WIZ032>034-041-042-053>061-021000-
SOUTHWEST WISCONSIN

CITY           SKY/WX    TMP DP  RH WIND       PRES   REMARKS
LA CROSSE      CLEAR     53  51  93 E5        30.01R
SPARTA         NOT AVBL
VIROQUA        NOT AVBL
BOSCOBEL       FOG       52  51  97 CALM      30.03R VSB 1/4
PRAIRIE DU CHI NOT AVBL
PLATTEVILLE    NOT AVBL
$$

WIZ056-057-062-063-064-067-068-021000-
SOUTH CENTRAL WISCONSIN

CITY           SKY/WX    TMP DP  RH WIND       PRES   REMARKS
REEDSBURG      NOT AVBL
BARABOO/DELLS  NOT AVBL
LONE ROCK      NOT AVBL
MINERAL POINT  NOT AVBL
MADISON        CLEAR     50  48  93 N3        30.02R FOG
MIDDLETON      NOT AVBL
WATERTOWN      NOT AVBL
MONROE         NOT AVBL
JANESVILLE     NOT AVBL
$$

WIZ051-052-058>065-066-070>072-021000-
SOUTHEAST WISCONSIN

CITY           SKY/WX    TMP DP  RH WIND       PRES   REMARKS
MILWAUKEE      CLEAR     53  47  79 N7        30.02R
WAUKESHA       NOT AVBL
MILWAUKEE/TIMM NOT AVBL
RACINE         CLEAR     53  48  83 N8        30.03R
BURLINGTON     NOT AVBL
KENOSHA        CLEAR     45  43  93 W3        30.02R FOG
FOND DU LAC    CLEAR     48  46  93 CALM      30.03S
SHEBOYGAN      CLEAR     47  45  93 N5        30.03S
WEST BEND      NOT AVBL
JUNEAU         NOT AVBL
$$

LSZ147-162-021000-
LAKE SUPERIOR

STATION/POSITION TIME  TEMP    WIND        PRES    WAVE
                       AIR SEA DIR/SP/G            HT/PER
                 (UTC) (F)     (DEG/KT/KT) (MB)    (FT/S)
W MID LAKE BUOY  0750   45 38  270/  4/  6 1016.3F   0
DEVILS ISLAND    0800   60     250/  3/  4 1016.1F
SAXON HARBOR     0800   52     190/  4/  6 1015.9
$$

LMZ867-665-643>646-021000-
LAKE MICHIGAN

STATION/POSITION TIME  TEMP    WIND        PRES    WAVE
                       AIR SEA DIR/SP/G            HT/PER
                 (UTC) (F)     (DEG/KT/KT) (MB)    (FT/S)
CHAMBERS ISLAND  0800   49        CALM     1017.3S
S GREEN BAY BUOY 0800   60 68  100/  8/ 12 1018.4
N MID LAKE BUOY  0750   50 42  340/  4/  4 1017.4F   0
NORTHPORT PIER   0800   51        CALM     1017.3S
SISTER BAY       0714   53      80/  1/  4   N/A
ALGOMA LAKESHORE 0840             CALM       N/A
KEWAUNEE LAKESHO 0800   47      CALM  /  3 1016.5S
SHEBOYGAN LAKESH 0800   56      20/ 11/ 11 1017.0F
PORT WASHINGTON  0800   53     340/  4/  6 1017.3
ATWATER BUOY     0800   57      20/ 14/ 17 1017.2F
MILWAUKEE LAKESH 0800   57      20/ 13/ 15   N/A
KENOSHA   LAKESH 0800   56      30/ 13/ 15 1015.9S
$$

TC  - TEMPERATURE IN CELSIUS
VSB - VISIBILITY IN STATUTE MILES
WCI - WIND CHILL INDEX
HX  - HEAT INDEX



USA.gov is the U.S. government's official web portal to all federal, state and local government web resources and services.